This demonstration page uses our WeatherBlox Daily Observations layout. Learn more.

Left ArrowRight Arrow

36.17497, -115.13722

Hourly Observations for November 13, 2020

Temp ( °F °C ) Dew Point ( °F °C ) Humidity (%) Winds ( mph kmh ) Pressure ( in mb ) Visibility ( mi km ) Precip ( " mm )
12:53 am 00:53 Clear 47 8.3 20 -6.7 34 34 NW 8 13 30.06 1018 10 16 0.00 0.00
1:53 am 01:53 Clear 48 8.9 20 -6.7 33 33 W 3 6 30.06 1018 10 16 0.00 0.00
2:53 am 02:53 Clear 45 7.2 20 -6.7 37 37 NNW 3 6 30.06 1018 10 16 0.00 0.00
3:53 am 03:53 Clear 44 6.7 20 -6.7 38 38 WNW 5 7 30.06 1018 10 16 0.00 0.00
4:53 am 04:53 Clear 43 6.1 21 -6.1 42 42 WNW 5 7 30.10 1019 10 16 0.00 0.00
5:53 am 05:53 Clear 43 6.1 22 -5.6 43 43 Calm 30.09 1019 10 16 0.00 0.00
6:53 am 06:53 Sunny 45 7.2 22 -5.6 40 40 WNW 3 6 30.10 1019 10 16 0.00 0.00
7:53 am 07:53 Sunny 50 10 23 -5 35 35 Calm 30.11 1020 10 16 0.00 0.00
8:53 am 08:53 Sunny 54 12.2 22 -5.6 29 29 SE 3 6 30.11 1020 10 16 0.00 0.00
9:53 am 09:53 Sunny 57 13.9 19 -7.2 23 23 SE 6 9 30.11 1020 10 16 0.00 0.00
10:53 am 10:53 Sunny 60 15.6 18 -7.8 19 19 ESE 6 9 30.09 1019 10 16 0.00 0.00
11:53 am 11:53 Sunny 62 16.7 20 -6.7 20 20 VRB 6 9 30.04 1017 10 16 0.00 0.00
12:53 pm 12:53 Sunny 64 17.8 20 -6.7 18 18 Calm 30.01 1016 10 16 0.00 0.00
1:53 pm 13:53 Sunny 66 18.9 20 -6.7 17 17 E 10 17 29.97 1015 10 16 0.00 0.00
2:53 pm 14:53 Sunny 68 20 21 -6.1 17 17 SE 9 15 29.93 1014 10 16 0.00 0.00
3:53 pm 15:53 Sunny 67 19.4 21 -6.1 17 17 E 7 11 29.92 1013 10 16 0.00 0.00
4:53 pm 16:53 Clear 67 19.4 21 -6.1 17 17 SSW 15 24 29.89 1012 10 16 0.00 0.00
5:53 pm 17:53 Clear 66 18.9 22 -5.6 19 19 SSW 17 28 29.88 1012 10 16 0.00 0.00
6:53 pm 18:53 Clear 65 18.3 23 -5 20 20 S 14 22 29.89 1012 10 16 0.00 0.00
7:53 pm 19:53 Clear 65 18.3 22 -5.6 19 19 S 14 22 29.86 1011 10 16 0.00 0.00
8:53 pm 20:53 Clear 65 18.3 20 -6.7 18 18 S 14 22 29.85 1011 10 16 0.00 0.00
9:53 pm 21:53 Clear 62 16.7 22 -5.6 21 21 SSE 10 17 29.85 1011 10 16 0.00 0.00
10:53 pm 22:53 Clear 62 16.7 24 -4.4 23 23 S 12 19 29.84 1011 10 16 0.00 0.00
11:53 pm 23:53 Clear 56 13.3 23 -5 28 28 WNW 7 11 29.87 1012 10 16 0.00 0.00

Powered by AerisWeather